Location: Newark
(46.9000°N, 28.3500°E)
Time: 23:14:20
(UTC+00:00)

Vanguard 1 Rocket - Pass Details

Date: 29 August 2019
Orbit: 650 x 4226 km, 34.3° (Epoch: 17 October)

Event Time Altitude Azimuth Distance (km) Brightness Sun altitude
Rises 22:17:57 0° 225° (SW) 3,564 - -33.9°
Reaches altitude 10° 22:22:00 10° 200° (SSW) 2,263 - -33.8°
Maximum altitude 22:24:28 14° 169° (SSE) 1,878 - -33.8°
Drops below altitude 10° 22:26:45 10° 137° (SE) 2,052 - -33.7°
Sets 22:30:03 0° 109° (ESE) 2,984 - -33.7°
